• In Germany
  • List of Countries
  • For 7 days
  • Water Temperature
  • Satellite Maps
  • Weather Map
  • Weather Widgets
  • user-avatar
    Login

    Hourly Weather Mingachevir

    Today, 24 August, Thursday

    Time Temperature Precipitation Wind Pressure Humidity
    00:00 +27°C° 0 mm 1 mps 751 mmHg 37%
    01:00 +27°C° 0 mm 1 mps 751 mmHg 37%
    02:00 +27°C° 0 mm 1 mps 751 mmHg 38%
    03:00 +27°C° 0 mm 2 mps 751 mmHg 39%
    04:00 +27°C° 0 mm 2 mps 752 mmHg 39%
    05:00 +27°C° 0 mm 2 mps 752 mmHg 39%
    06:00 +27°C° 0 mm 2 mps 752 mmHg 40%
    07:00 +29°C° 0 mm 2 mps 752 mmHg 34%
    08:00 +31°C° 0 mm 2 mps 753 mmHg 29%
    09:00 +35°C° 0 mm 2 mps 753 mmHg 23%
    10:00 +36°C° 0 mm 3 mps 752 mmHg 21%
    11:00 +38°C° 0 mm 4 mps 752 mmHg 18%
    12:00 +40°C° 0 mm 5 mps 752 mmHg 15%
    13:00 +41°C° 0 mm 5 mps 752 mmHg 15%
    14:00 +41°C° 0 mm 6 mps 751 mmHg 15%
    15:00 +41°C° 0 mm 6 mps 751 mmHg 14%
    16:00 +40°C° 0 mm 6 mps 751 mmHg 16%
    17:00 +39°C° 0 mm 6 mps 751 mmHg 17%
    18:00 +38°C° 0 mm 6 mps 751 mmHg 19%
    19:00 +35°C° 0 mm 5 mps 752 mmHg 21%
    20:00 +33°C° 0 mm 5 mps 752 mmHg 23%
    21:00 +29°C° 0 mm 4 mps 753 mmHg 26%
    22:00 +29°C° 0 mm 3 mps 753 mmHg 28%
    23:00 +28°C° 0 mm 3 mps 753 mmHg 30%

    Tomorrow, 25 August, Friday

    Time Temperature Precipitation Wind Pressure Humidity
    00:00 +27°C° 0 mm 2 mps 753 mmHg 32%
    01:00 +26°C° 0 mm 2 mps 753 mmHg 33%
    02:00 +26°C° 0 mm 2 mps 753 mmHg 35%
    03:00 +25°C° 0 mm 1 mps 754 mmHg 36%
    04:00 +25°C° 0 mm 1 mps 754 mmHg 36%
    05:00 +25°C° 0 mm 1 mps 754 mmHg 36%
    06:00 +25°C° 0 mm 1 mps 754 mmHg 36%
    07:00 +28°C° 0 mm 1 mps 754 mmHg 31%
    08:00 +30°C° 0 mm 1 mps 754 mmHg 25%
    09:00 +32°C° 0 mm 2 mps 754 mmHg 20%
    10:00 +35°C° 0 mm 2 mps 753 mmHg 17%
    11:00 +36°C° 0 mm 3 mps 753 mmHg 15%
    12:00 +38°C° 0 mm 3 mps 753 mmHg 12%
    13:00 +38°C° 0 mm 4 mps 752 mmHg 12%
    14:00 +40°C° 0 mm 5 mps 752 mmHg 12%
    15:00 +41°C° 0 mm 5 mps 751 mmHg 12%
    16:00 +40°C° 0 mm 5 mps 752 mmHg 13%
    17:00 +39°C° 0 mm 5 mps 752 mmHg 14%
    18:00 +36°C° 0 mm 5 mps 752 mmHg 15%
    19:00 +34°C° 0 mm 5 mps 752 mmHg 19%
    20:00 +32°C° 0 mm 5 mps 753 mmHg 24%
    21:00 +29°C° 0 mm 5 mps 754 mmHg 28%
    22:00 +29°C° 0 mm 4 mps 754 mmHg 31%
    23:00 +28°C° 0 mm 4 mps 754 mmHg 34%

    Day after tomorrow, 26 August, Saturday

    Time Temperature Precipitation Wind Pressure Humidity
    00:00 +27°C° 0 mm 3 mps 754 mmHg 38%
    01:00 +26°C° 0 mm 3 mps 754 mmHg 38%
    02:00 +26°C° 0 mm 2 mps 754 mmHg 38%
    03:00 +25°C° 0 mm 2 mps 754 mmHg 38%
    04:00 +25°C° 0 mm 1 mps 754 mmHg 38%
    05:00 +25°C° 0 mm 1 mps 754 mmHg 37%
    06:00 +25°C° 0 mm 1 mps 754 mmHg 37%
    07:00 +28°C° 0 mm 1 mps 754 mmHg 33%
    08:00 +30°C° 0 mm 2 mps 754 mmHg 29%
    09:00 +32°C° 0 mm 2 mps 754 mmHg 25%
    10:00 +34°C° 0 mm 3 mps 753 mmHg 23%
    11:00 +36°C° 0 mm 3 mps 753 mmHg 21%
    12:00 +37°C° 0 mm 4 mps 752 mmHg 18%
    13:00 +37°C° 0 mm 4 mps 752 mmHg 18%
    14:00 +38°C° 0 mm 4 mps 752 mmHg 17%
    15:00 +39°C° 0 mm 5 mps 751 mmHg 16%
    16:00 +37°C° 0 mm 5 mps 751 mmHg 18%
    17:00 +36°C° 0 mm 4 mps 751 mmHg 20%
    18:00 +35°C° 0 mm 4 mps 752 mmHg 21%
    19:00 +34°C° 0 mm 4 mps 752 mmHg 25%
    20:00 +32°C° 0 mm 5 mps 752 mmHg 30%
    21:00 +29°C° 0 mm 5 mps 753 mmHg 34%
    22:00 +28°C° 0 mm 4 mps 753 mmHg 37%
    23:00 +27°C° 0 mm 3 mps 753 mmHg 40%

    27 August, Sunday

    Time Temperature Precipitation Wind Pressure Humidity
    00:00 +27°C° 0 mm 3 mps 753 mmHg 44%
    01:00 +26°C° 0 mm 2 mps 753 mmHg 45%
    02:00 +26°C° 0 mm 2 mps 753 mmHg 46%
    03:00 +25°C° 0 mm 2 mps 752 mmHg 48%
    04:00 +25°C° 0 mm 1 mps 753 mmHg 48%
    05:00 +25°C° 0 mm 1 mps 753 mmHg 48%
    06:00 +25°C° 0 mm 1 mps 753 mmHg 47%
    07:00 +27°C° 0 mm 1 mps 753 mmHg 43%
    08:00 +29°C° 0 mm 2 mps 753 mmHg 38%
    09:00 +31°C° 0 mm 2 mps 753 mmHg 33%
    10:00 +34°C° 0 mm 3 mps 752 mmHg 30%
    11:00 +35°C° 0 mm 3 mps 752 mmHg 27%
    12:00 +36°C° 0 mm 3 mps 751 mmHg 24%
    13:00 +37°C° 0 mm 4 mps 751 mmHg 23%
    14:00 +37°C° 0 mm 4 mps 750 mmHg 22%
    15:00 +39°C° 0 mm 5 mps 750 mmHg 21%
    16:00 +37°C° 0 mm 5 mps 750 mmHg 22%
    17:00 +36°C° 0 mm 4 mps 750 mmHg 24%
    18:00 +35°C° 0 mm 4 mps 750 mmHg 25%
    19:00 +33°C° 0 mm 4 mps 751 mmHg 30%
    20:00 +32°C° 0 mm 5 mps 751 mmHg 35%
    21:00 +29°C° 0 mm 5 mps 752 mmHg 40%
    22:00 +28°C° 0 mm 4 mps 752 mmHg 44%
    23:00 +27°C° 0 mm 3 mps 752 mmHg 47%

    28 August, Monday

    Time Temperature Precipitation Wind Pressure Humidity
    00:00 +26°C° 0 mm 3 mps 752 mmHg 50%
    01:00 +26°C° 0 mm 2 mps 752 mmHg 52%
    02:00 +25°C° 0 mm 2 mps 752 mmHg 53%
    03:00 +25°C° 0 mm 2 mps 752 mmHg 54%
    04:00 +25°C° 0 mm 1 mps 752 mmHg 53%
    05:00 +25°C° 0 mm 1 mps 752 mmHg 51%
    06:00 +25°C° 0 mm 1 mps 752 mmHg 50%
    07:00 +27°C° 0 mm 1 mps 752 mmHg 44%
    08:00 +29°C° 0 mm 2 mps 752 mmHg 38%
    09:00 +31°C° 0 mm 2 mps 752 mmHg 33%
    10:00 +34°C° 0 mm 2 mps 751 mmHg 30%
    11:00 +35°C° 0 mm 3 mps 751 mmHg 27%
    12:00 +36°C° 0 mm 3 mps 750 mmHg 24%
    13:00 +37°C° 0 mm 3 mps 750 mmHg 23%
    14:00 +37°C° 0 mm 4 mps 749 mmHg 22%
    15:00 +38°C° 0 mm 4 mps 749 mmHg 21%
    16:00 +37°C° 0 mm 4 mps 749 mmHg 22%
    17:00 +36°C° 0 mm 4 mps 749 mmHg 23%
    18:00 +35°C° 0 mm 3 mps 749 mmHg 24%
    19:00 +34°C° 0 mm 4 mps 750 mmHg 28%
    20:00 +32°C° 0 mm 4 mps 750 mmHg 31%
    21:00 +29°C° 0 mm 4 mps 751 mmHg 34%
    22:00 +28°C° 0 mm 3 mps 751 mmHg 37%
    23:00 +27°C° 0 mm 3 mps 751 mmHg 40%

    29 August, Tuesday

    Time Temperature Precipitation Wind Pressure Humidity
    00:00 +27°C° 0 mm 2 mps 751 mmHg 43%
    01:00 +26°C° 0 mm 2 mps 750 mmHg 45%
    02:00 +26°C° 0 mm 2 mps 750 mmHg 47%
    03:00 +25°C° 0 mm 1 mps 750 mmHg 48%
    04:00 +25°C° 0 mm 1 mps 750 mmHg 48%
    05:00 +25°C° 0 mm 1 mps 750 mmHg 48%
    06:00 +25°C° 0 mm 1 mps 751 mmHg 47%
    07:00 +27°C° 0 mm 1 mps 750 mmHg 42%
    08:00 +29°C° 0 mm 1 mps 750 mmHg 37%
    09:00 +31°C° 0 mm 2 mps 750 mmHg 31%
    10:00 +34°C° 0 mm 2 mps 749 mmHg 28%
    11:00 +35°C° 0 mm 2 mps 749 mmHg 25%
    12:00 +37°C° 0 mm 2 mps 748 mmHg 22%
    13:00 +37°C° 0 mm 2 mps 748 mmHg 22%
    14:00 +38°C° 0 mm 2 mps 747 mmHg 21%
    15:00 +38°C° 0 mm 2 mps 747 mmHg 20%
    16:00 +37°C° 0 mm 2 mps 747 mmHg 22%
    17:00 +36°C° 0 mm 1 mps 747 mmHg 24%
    18:00 +35°C° 0 mm 1 mps 747 mmHg 25%
    19:00 +33°C° 0 mm 1 mps 747 mmHg 28%
    20:00 +32°C° 0 mm 1 mps 747 mmHg 30%
    21:00 +30°C° 0 mm 2 mps 748 mmHg 32%
    22:00 +29°C° 0 mm 2 mps 748 mmHg 34%
    23:00 +29°C° 0 mm 2 mps 748 mmHg 36%
    Show more